Tracking 25195 objects as of 20-Jan-2022
HD Live streaming from Space Station
objects crossing your sky now

FENGYUN 2H DEB

Track FENGYUN 2H DEB now!


NORAD ID: 43645
Int'l Code: 2018-050D
Perigee: 35,589.5 km
Apogee: 35,979.1 km
Inclination: 0.8 °
Period: 1,435.6 minutes
Semi major axis: 42155 km
RCS: Unknown
Launch date: June 5, 2018
Source: People's Republic of China (PRC)
Launch site: Xichang Space Center, China (XSC)

Note: This is SATELLITE DEBRIS
aabbcc
Your satellite tracking list
Your tracking list is empty




NASA's NSSDC Master Catalog

Two Line Element Set (TLE):
1 43645U 18050D   22019.50919064  .00000072  00000-0  00000-0 0  9993
2 43645   0.7737 100.6534 0046212 242.1037  17.0668  1.00305450 12785
Source of the keplerian elements: AFSPC